Location: Center Berlin
(42.6609°N, 73.3687°W)
Time: 21:29:21
(UTC+00:00)

Cosmos 1818 - Pass Details

Date: 10 September 2024
Orbit: 771 x 801 km, 65.0° (Epoch: 13 October)

Event Time Altitude Azimuth Distance (km) Brightness Sun altitude
Rises 23:46:41 0° 208° (SSW) 3,271 7.0 -7.3°
Reaches altitude 10° 23:49:05 10° 207° (SSW) 2,350 6.2 -7.7°
Maximum altitude 23:54:29 80° 121° (ESE) 812 3.6 -8.7°
Drops below altitude 10° 23:59:58 10° 35° (NE) 2,380 5.9 -9.6°
Sets 00:02:25 0° 35° (NE) 3,316 6.6 -10.1°
